WS Maaseik 1 Meer informatie WS Maaseik 1


WS Maaseik 2 Meer informatie WS Maaseik 2


Regen radar Meer informatie rain snow radar


Bezoek onze andere website:

Vorige versie
weerstation Maaseik


Bezoek ook eens deze sites:

Weerstation Geleen



Het weer levert geen direct gevaar op.    Er zijn geen waarschuwingen afgegeven.

15 daagse weersverwachting Braine-l'Alleud (BE)

  • Overzicht
  • Per uur
  • 15 dagen
  • Extra
  • Vergelijk
  • Kaarten
  • Dagkaart
  • Meer »
  • Info
  • Statistieken
  • Directe link
    Temp 6h Neerslag Wind  
 05:52     21:27    Daglengte: 15:35 Vandaag
20:00
25°
 
2
 05:50     21:29    Daglengte: 15:39 Morgen
02:00
19°
 
3
08:00
19°
 
3
14:00
23°
 
1
20:00
24°
 
3
 05:49     21:30    Daglengte: 15:41 Donderdag 19 Mei
02:00
19°
 
3
08:00
19°
 
3
14:00
25°
5.5 mm
5
20:00
22°
27.9 mm
3
 05:48     21:31    Daglengte: 15:43 Vrijdag 20 Mei
02:00
16°
10.6 mm
2
08:00
17°
7.0 mm
2
Locatie info
Region: Wallonia
Latitude: 50.6836°N
Longitude: 4.3678°E
93 masl
Temp/Neerslag /Baro Onweer/Dauwpunt
    Temp Baro 1h Neerslag Dauwpunt Wind UV Bewolking  
 05:52     21:27    Daglengte: 15:35 Vandaag
17:00
26°
1018.3 hPa
14%
9.1°
3
Windvlaag: 3.9 m/s
9%
18:00
26°
1017.9 hPa
14%
8.7°
3
Windvlaag: 2.8 m/s
7%
19:00
25°
1017.9 hPa
14%
9.1°
2
Windvlaag: 0.7 m/s
5%
20:00
25°
1017.8 hPa
14%
9.7°
2
Windvlaag: -1 m/s
4%
21:00
23°
1017.9 hPa
14%
11.7°
1
Windvlaag: -1.8 m/s
3%
22:00
21°
1018.4 hPa
14%
13.4°
1
Windvlaag: -0.8 m/s
13%
23:00
20°
1018.4 hPa
14%
13.5°
2
Windvlaag: 1.9 m/s
1%
 05:50     21:29    Daglengte: 15:39 Morgen
00:00
19°
1018.5 hPa
14%
13.2°
3
Windvlaag: 2.4 m/s
2%
01:00
19°
1018.3 hPa
14%
12.7°
3
Windvlaag: 3.2 m/s
7%
02:00
19°
1018.3 hPa
14%
11.9°
3
Windvlaag: 4.2 m/s
10%
03:00
18°
1018.1 hPa
14%
10.0°
3
Windvlaag: 3.7 m/s
9%
04:00
18°
1018.1 hPa
14%
11.5°
3
Windvlaag: 5.2 m/s
12%
05:00
18°
1018.5 hPa
15%
12.9°
3
Windvlaag: 5.6 m/s
17%
06:00
18°
1019.4 hPa
18%
14.3°
3
Windvlaag: 3 m/s
17%
07:00
18°
1020.1 hPa
16%
14.6°
3
Windvlaag: 1.3 m/s
17%
08:00
19°
1020.8 hPa
16%
13.8°
3
Windvlaag: 0 m/s
54%
09:00
19°
1021.3 hPa
65%
11.7°
3
Windvlaag: -0.2 m/s
70%
10:00
19°
1021.7 hPa
73%
10.2°
2
Windvlaag: -1.9 m/s
54%
11:00
20°
1022.2 hPa
67%
9.6°
2
Windvlaag: -1.6 m/s
55%
12:00
21°
1022.1 hPa
17%
9.4°
2
Windvlaag: -3 m/s
49%
13:00
22°
1021.9 hPa
15%
9.5°
2
Windvlaag: -3 m/s
41%
14:00
23°
1021.5 hPa
14%
9.6°
1
Windvlaag: -1.6 m/s
17%
15:00
24°
1021.1 hPa
14%
9.7°
1
Windvlaag: 1 m/s
35%
16:00
25°
1020.4 hPa
14%
9.5°
1
Windvlaag: -1.9 m/s
65%
17:00
25°
1020.0 hPa
14%
9.0°
2
Windvlaag: -3.9 m/s
24%
18:00
25°
1019.7 hPa
14%
9.1°
2
Windvlaag: -3.4 m/s
22%
19:00
25°
1019.5 hPa
14%
8.9°
2
Windvlaag: -2.8 m/s
19%
20:00
24°
1019.2 hPa
14%
8.9°
3
Windvlaag: -1.4 m/s
17%
21:00
23°
1019.1 hPa
14%
9.8°
2
Windvlaag: -1.2 m/s
28%
22:00
21°
1019.1 hPa
14%
11.8°
3
Windvlaag: -1.5 m/s
53%
23:00
20°
1018.8 hPa
14%
12.2°
3
Windvlaag: -0.1 m/s
19%
 05:49     21:30    Daglengte: 15:41 Donderdag 19 Mei
00:00
20°
1018.5 hPa
14%
12.6°
3
Windvlaag: 1.4 m/s
52%
01:00
19°
1018.1 hPa
14%
13.3°
3
Windvlaag: 0.9 m/s
54%
02:00
19°
1017.5 hPa
14%
13.6°
3
Windvlaag: 2.4 m/s
57%
03:00
19°
1017.0 hPa
29%
14.6°
3
Windvlaag: 7.2 m/s
63%
04:00
19°
1016.8 hPa
82%
15.5°
3
Windvlaag: 8 m/s
80%
05:00
19°
1016.4 hPa
29%
15.6°
3
Windvlaag: 8.4 m/s
72%
06:00
19°
1016.8 hPa
82%
16.0°
4
Windvlaag: 8.2 m/s
57%
07:00
19°
1016.8 hPa
82%
14.3°
3
Windvlaag: 5.8 m/s
62%
08:00
19°
1017.2 hPa
78%
14.2°
3
Windvlaag: 5.1 m/s
62%
09:00
20°
1017.0 hPa 1.4 mm
81%
13.4°
3
Windvlaag: 4.1 m/s
65%
10:00
21°
1016.8 hPa
63%
15.7°
3
Windvlaag: 4.6 m/s
78%
11:00
22°
1018.2 hPa 4.1 mm
87%
18.4°
3
Windvlaag: 3.7 m/s
96% warningclass
12:00
23°
1018.8 hPa
88%
18.5°
3
Windvlaag: 2.2 m/s
81%
13:00
24°
1018.9 hPa
46%
18.8°
4
Windvlaag: -0 m/s
83%
14:00
25°
1018.9 hPa
33%
18.3°
5
Windvlaag: -0.4 m/s
80%
15:00
26°
1018.9 hPa 4.4 mm
99%
16.6°
5
Windvlaag: -0.5 m/s
89%
16:00
24°
1019.2 hPa 4.7 mm
100%
16.2°
5
Windvlaag: -0.6 m/s
64%
17:00
24°
1019.4 hPa 4.8 mm
100%
15.7°
4
Windvlaag: -1.7 m/s
74%
18:00
23°
1019.7 hPa 5.2 mm
100%
15.9°
4
Windvlaag: -2.7 m/s
69% warningclass
19:00
23°
1020.0 hPa 5.1 mm
100%
15.9°
3
Windvlaag: -2.5 m/s
92% warningclass
20:00
22°
1020.4 hPa 3.7 mm
99%
14.8°
3
Windvlaag: -3.6 m/s
88%
21:00
20°
1020.6 hPa 4.4 mm
37%
13.8°
2
Windvlaag: -4 m/s
74%
22:00
19°
1021.0 hPa
24%
13.7°
2
Windvlaag: -3.7 m/s
73%
23:00
18°
1020.9 hPa
21%
13.0°
2
Windvlaag: -3.6 m/s
69%
 05:48     21:31    Daglengte: 15:43 Vrijdag 20 Mei
00:00
18°
1020.9 hPa
22%
12.2°
2
Windvlaag: -2.2 m/s
83%
01:00
17°
1020.9 hPa
22%
14.1°
2
Windvlaag: -1.7 m/s
93%
02:00
16°
1020.6 hPa 6.2 mm
21%
15.0°
2
Windvlaag: -2.2 m/s
79%
03:00
16°
1020.2 hPa
21%
15.0°
2
Windvlaag: -1.8 m/s
98%
04:00
16°
1019.8 hPa 7.0 mm
33%
14.8°
1
Windvlaag: -3.4 m/s
96%
05:00
15°
1019.0 hPa
36%
14.7°
2
Windvlaag: -1.8 m/s
80%
06:00
15°
1019.0 hPa
81%
14.6°
2
Windvlaag: 6.2 m/s
96%
07:00
16°
1018.7 hPa
22%
14.8°
2
Windvlaag: 4.8 m/s
96%
08:00
17°
1018.7 hPa
34%
15.9°
2
Windvlaag: 6 m/s
99%
09:00
18°
1018.5 hPa 9.5 mm
98%
16.9°
3
Windvlaag: 10.4 m/s
58%
10:00
19°
1017.4 hPa 9.8 mm
92%
17.5°
2
Windvlaag: 6.6 m/s
97%
11:00
19°
1018.0 hPa 12.2 mm
100%
16.1°
2
Windvlaag: 10.3 m/s
99% warningclass
12:00
20°
1017.0 hPa 11.7 mm
100%
14.9°
3
Windvlaag: 11 m/s
100% warningclass
13:00
19°
1016.4 hPa 13.2 mm
100%
17.1°
4
Windvlaag: 9.8 m/s
100% warningclass
14:00
20°
1016.0 hPa 11.9 mm
100%
17.4°
5
Windvlaag: 9.5 m/s
100% warningclass
Temp/Neerslag /Baro Onweer/Dauwpunt
    Temp Baro Neerslag Dauwpunt Wind Bewolking  
 05:52     21:27    Daglengte: 15:35 Vandaag
17:00
26°
1018.3 hPa   9.1°
3
9%
20:00
25°
1017.8 hPa   9.7°
2
4%
23:00
20°
1018.4 hPa   13.5°
2
1%
 05:50     21:29    Daglengte: 15:39 Morgen
02:00
19°
1018.3 hPa   11.9°
3
10%
05:00
18°
1018.5 hPa   12.9°
3
17%
08:00
19°
1020.8 hPa   13.8°
3
54%
11:00
20°
1022.2 hPa   9.6°
2
55%
14:00
23°
1021.5 hPa   9.6°
1
17%
17:00
25°
1020.0 hPa   9.0°
2
24%
20:00
24°
1019.2 hPa   8.9°
3
17%
23:00
20°
1018.8 hPa   12.2°
3
19%
 05:49     21:30    Daglengte: 15:41 Donderdag 19 Mei
02:00
19°
1017.5 hPa   13.6°
3
57%
05:00
19°
1016.4 hPa   15.6°
3
72%
08:00
19°
1017.2 hPa   14.2°
3
62%
11:00
22°
1018.2 hPa 5.5 mm 18.4°
3
96% warningclass
14:00
25°
1018.9 hPa   18.3°
5
80%
17:00
24°
1019.4 hPa 13.9 mm 15.7°
4
74%
20:00
22°
1020.4 hPa 14.0 mm 14.8°
3
88%
23:00
18°
1020.9 hPa 4.4 mm 13.0°
2
69%
 05:48     21:31    Daglengte: 15:43 Vrijdag 20 Mei
02:00
16°
1020.6 hPa 6.2 mm 15.0°
2
79%
05:00
15°
1019.0 hPa 7.0 mm 14.7°
2
80%
08:00
17°
1018.7 hPa   15.9°
2
99%
11:00
19°
1018.0 hPa 31.4 mm 16.1°
2
99% warningclass
14:00
20°
1016.0 hPa 36.9 mm 17.4°
5
100% warningclass
17:00
14°
1019.1 hPa 18.4 mm 13.2°
2
1%
20:00
15°
1019.5 hPa 18.5 mm 13.4°
3
1%
23:00
12°
1021.3 hPa 18.7 mm 10.7°
4
0%
 05:47     21:33    Daglengte: 15:46 Zaterdag 21 Mei
02:00
10°
Voelt als: 7.5°
1021.6 hPa 18.7 mm 8.2°
4
0%
05:00
Voelt als: 6.4°
1022.2 hPa 18.7 mm 7.8°
4
0%
08:00
11°
1023.2 hPa 18.7 mm 9.7°
4
0%
11:00
16°
1023.4 hPa 18.7 mm 8.9°
4
1%
14:00
19°
1022.9 hPa 18.7 mm 7.5°
4
1%
17:00
20°
1021.3 hPa 18.7 mm 7.5°
2
1%
20:00
19°
1020.7 hPa 18.7 mm 10.2°
0
1%
23:00
12°
1021.1 hPa 18.7 mm 8.3°
3
0%
 05:45     21:34    Daglengte: 15:49 Zondag 22 Mei
02:00
11°
1019.4 hPa 18.7 mm 8.2°
3
0%
05:00
10°
Voelt als: 8.3°
1016.9 hPa 18.7 mm 7.6°
3
1%
08:00
13°
1015.5 hPa 18.7 mm 8.4°
3
1%
11:00
15°
1012.7 hPa 18.7 mm 9.9°
4
1%
14:00
20°
1010.6 hPa 18.8 mm 10.9°
3
1%
17:00
18°
1009.6 hPa 19.4 mm 12.8°
3
1%
20:00
13°
1010.7 hPa 20.6 mm 11.5°
6
1%
23:00
13°
1013.1 hPa 21.7 mm 12.5°
4
1%
 05:44     21:35    Daglengte: 15:51 Maandag 23 Mei
02:00
11°
1014.6 hPa 21.7 mm 10.4°
3
1%
05:00
Voelt als: 7.6°
1015.4 hPa 21.7 mm 9.0°
3
1%
08:00
11°
1016.2 hPa 21.7 mm 9.3°
2
1%
11:00
15°
1015.4 hPa 21.7 mm 9.4°
3
1%
14:00
19°
1014.4 hPa 21.7 mm 10.0°
5
1%
17:00
19°
1013.4 hPa 21.7 mm 12.2°
3
1%
20:00
17°
1013.0 hPa 22.2 mm 13.9°
4
1%
23:00
13°
1014.2 hPa 22.4 mm 11.5°
3
1%
 05:43     21:37    Daglengte: 15:54 Dinsdag 24 Mei
02:00
11°
1014.8 hPa 22.4 mm 8.7°
3
1%
05:00
Voelt als: 8.0°
1014.5 hPa 22.4 mm 7.5°
3
1%
08:00
12°
1015.0 hPa 22.4 mm 8.5°
2
1%
11:00
15°
1015.4 hPa 22.4 mm 9.2°
2
1%
14:00
19°
1014.7 hPa 44.8 mm 8.2°
2
1%
20:00
20°
1013.5 hPa 44.8 mm 11.9°
1
1%
 05:42     21:38    Daglengte: 15:56 Woensdag 25 Mei
02:00
13°
1013.5 hPa 44.8 mm 8.4°
3
1%
08:00
17°
1012.3 hPa 44.8 mm 12.3°
3
1%
14:00
27°
1009.4 hPa 44.8 mm 16.3°
4
1%
20:00
25°
1006.2 hPa 44.8 mm 18.9°
4
1%
 05:41     21:39    Daglengte: 15:58 Donderdag 26 Mei
02:00
19°
1007.2 hPa 47.0 mm 17.8°
6
1%
08:00
13°
1011.8 hPa 51.7 mm 12.5°
5
1%
14:00
16°
1017.0 hPa 57.6 mm 11.2°
8
1%
20:00
16°
1020.8 hPa 58.6 mm 10.0°
5
1%
 05:40     21:40    Daglengte: 16:00 Vrijdag 27 Mei
02:00
10°
Voelt als: 8.3°
1024.2 hPa 58.7 mm 7.8°
3
0%
08:00
12°
1025.9 hPa 58.7 mm 7.3°
2
0%
14:00
21°
1018.0 hPa 0.5 mm 9.9°
2
47%
20:00
20°
1017.6 hPa 0.6 mm 11.1°
1
41%
 05:39     21:41    Daglengte: 16:02 Zaterdag 28 Mei
02:00
14°
1018.4 hPa 0.1 mm 9.8°
1
39%
08:00
14°
1018.1 hPa   9.7°
1
47%
14:00
22°
1017.2 hPa 0.4 mm 10.4°
1
55%
20:00
20°
1016.5 hPa 0.9 mm 12.1°
1
57%
 05:38     21:43    Daglengte: 16:05 Zondag 29 Mei
02:00
14°
1017.4 hPa 1.0 mm 10.1°
0
54%
08:00
14°
1017.9 hPa 1.2 mm 9.9°
1
57%
14:00
20°
1018.0 hPa 0.6 mm 9.7°
2
57%
20:00
18°
1018.2 hPa 1.4 mm 10.4°
2
62%
 05:38     21:44    Daglengte: 16:06 Maandag 30 Mei
02:00
12°
1019.5 hPa 0.6 mm 9.0°
1
46%
08:00
13°
1019.6 hPa 1.1 mm 8.8°
1
40%
14:00
20°
1018.8 hPa 0.8 mm 8.6°
2
44%
20:00
19°
1017.9 hPa 0.5 mm 9.8°
2
54%
 05:37     21:45    Daglengte: 16:08 Dinsdag 31 Mei
02:00
13°
1018.9 hPa 0.1 mm 9.2°
1
48%
08:00
14°
1018.6 hPa 0.3 mm 9.1°
0
41%
14:00
20°
1017.8 hPa 0.4 mm 8.3°
1
48%
20:00
19°
1017.0 hPa 0.5 mm 9.0°
2
45%
 05:36     21:46    Daglengte: 16:10 Woensdag 01 Jun
02:00
13°
1018.3 hPa 0.2 mm 8.7°
0
33%
08:00
13°
1018.4 hPa 0.1 mm 8.6°
1
46%
14:00
20°
1017.7 hPa 0.4 mm 8.8°
1
47%
  CAPE Lifted Index Hail Supercell Tornado SRH 3km CL BTM PRES CL TOP PRES Swiss DWD icon SMHI TS
 05:52     21:27    Daglengte: 15:35 Vandaag
17:00 0 J/kg 0.8 K 0 % 0 % 0 % 0 m²/s² 0 0 3.23 1
18:00 0 J/kg 0.9 K 0 % 0 % 0 % 0 m²/s² 0 0 3.48 1
19:00 0 J/kg 1.1 K 0 % 0 % 0 % 0 m²/s² 0 0 3.74 1
20:00 0 J/kg 1.2 K 0 % 0 % 0 % 0 m²/s² 0 0 3.57 2
21:00 0 J/kg 0.6 K 0 % 0 % 0 % 0 m²/s² 0 0 2.67 1
22:00 70 J/kg -0.8 K 0 % 0 % 0 % 0 m²/s² 0 0 1.27 2
23:00 74 J/kg -1.4 K 0 % 0 % 0 % 0 m²/s² 0 0 0.67 0
 05:50     21:29    Daglengte: 15:39 Morgen
00:00 0 J/kg -1.2 K 0 % 0 % 0 % 0 m²/s² 0 0 0.75 0
01:00 0 J/kg -1.2 K 0 % 0 % 0 % 0 m²/s² 0 0 0.51 0
02:00 0 J/kg -1.1 K 0 % 0 % 0 % 0 m²/s² 0 0 0.55 1
03:00 0 J/kg -0.4 K 0 % 0 % 0 % 0 m²/s² 0 0 0.95 1
04:00 0 J/kg -0.1 K 0 % 0 % 0 % 0 m²/s² 0 0 0.5 2
05:00 0 J/kg -0.6 K 0 % 0 % 0 % 0 m²/s² 0 0 -0.21 1
06:00 0 J/kg -0.4 K 0 % 0 % 0 % 0 m²/s² 0 0 0.2 2
07:00 0 J/kg -0.6 K 0 % 0 % 0 % 0 m²/s² 0 0 1.23 2
08:00 0 J/kg -1.0 K 0 % 0 % 0 % 0 m²/s² 0 0 1.91 2
09:00 0 J/kg -0.7 K 0 % 0 % 0 % 0 m²/s² 0 0 3.86 3
10:00 12 J/kg -0.6 K 0 % 0 % 0 % 0 m²/s² 0 0 5.01 2
11:00 0 J/kg -0.4 K 0 % 0 % 0 % 0 m²/s² 0 0 6.23 2
12:00 0 J/kg -0.5 K 0 % 0 % 0 % 0 m²/s² 0 0 6.34 3
13:00 14 J/kg -0.3 K 0 % 0 % 0 % 0 m²/s² 0 0 6.15 3
14:00 96 J/kg -0.6 K 0 % 0 % 0 % 0 m²/s² 0 0 6.03 3
15:00 256 J/kg -1.1 K 0 % 0 % 0 % 0 m²/s² 0 0 5.53 3
16:00 457 J/kg -1.8 K 0 % 0 % 0 % 0 m²/s² 0 0 4.14 3
17:00 600 J/kg -2.1 K 0 % 0 % 0 % 0 m²/s² 0 0 2.82 2
18:00 669 J/kg -2.4 K 0 % 0 % 0 % 0 m²/s² 0 0 1.83 2
19:00 695 J/kg -2.6 K 0 % 0 % 0 % 0 m²/s² 0 0 0.64 2
20:00 729 J/kg -2.9 K 0 % 0 % 0 % 0 m²/s² 0 0 0.34 2
21:00 744 J/kg -3.4 K 0 % 0 % 0 % 0 m²/s² 0 0 -0.16 3
22:00 787 J/kg -4.5 K 0 % 0 % 0 % 0 m²/s² 0 0 -1.59 3
23:00 791 J/kg -4.9 K 0 % 0 % 0 % 0 m²/s² 0 0 -1.9 1
 05:49     21:30    Daglengte: 15:41 Donderdag 19 Mei
00:00 1000 J/kg -4.8 K 0 % 0 % 0 % 0 m²/s² 0 0 -1.65 3
01:00 1192 J/kg -4.7 K 0 % 0 % 0 % 0 m²/s² 0 0 -1.37 3
02:00 559 J/kg -5.5 K 0 % 0 % 0 % 0 m²/s² 0 0 -1.99 3
03:00 1125 J/kg -6.4 K 0 % 0 % 0 % 0 m²/s² 0 0 -2.62 3
04:00 670 J/kg -6.1 K 0 % 0 % 0 % 0 m²/s² 0 0 -2.32 3
05:00 196 J/kg -4.7 K 0 % 0 % 0 % 0 m²/s² 0 0 -1.01 3
06:00 126 J/kg -1.9 K 0 % 0 % 0 % 0 m²/s² 0 0 -1 3
07:00 0 J/kg -4.0 K 0 % 0 % 0 % 0 m²/s² 0 0 -2.86 3
08:00 118 J/kg -3.9 K 0 % 0 % 0 % 0 m²/s² 0 0 -3.63 3
09:00 68 J/kg -3.5 K 0 % 0 % 0 % 0 m²/s² 0 0 -2.84 3
10:00 200 J/kg -1.9 K 0 % 0 % 0 % 0 m²/s² 0 0 -1.36 3
11:00 776 J/kg -2.8 K 0 % 0 % 0 % 0 m²/s² 0 0 -2.68 80
12:00 1393 J/kg -4.3 K 0 % 0 % 0 % 0 m²/s² 0 0 -3.88 2
13:00 1219 J/kg -3.7 K 0 % 0 % 0 % 0 m²/s² 0 0 -3.49 3
14:00 1117 J/kg -3.5 K 0 % 0 % 0 % 0 m²/s² 0 0 -2.75 3
15:00 382 J/kg -1.6 K 0 % 0 % 0 % 0 m²/s² 0 0 -0.61 80
16:00 341 J/kg -1.6 K 0 % 0 % 0 % 0 m²/s² 0 0 -0.46 80
17:00 441 J/kg -1.6 K 0 % 0 % 0 % 0 m²/s² 0 0 -1.03 80
18:00 607 J/kg -1.8 K 0 % 0 % 0 % 0 m²/s² 0 0 -0.69 95
19:00 671 J/kg -2.0 K 0 % 0 % 0 % 0 m²/s² 0 0 -0.53 95
20:00 178 J/kg -0.6 K 0 % 0 % 0 % 0 m²/s² 0 0 1.5 81
21:00 0 J/kg 0.2 K 0 % 0 % 0 % 0 m²/s² 0 0 2.63 3
22:00 0 J/kg 0.9 K 0 % 0 % 0 % 0 m²/s² 0 0 4.14 3
23:00 0 J/kg 0.0 K 0 % 0 % 0 % 0 m²/s² 0 0 2.52 2
 05:48     21:31    Daglengte: 15:43 Vrijdag 20 Mei
00:00 0 J/kg 1.4 K 0 % 0 % 0 % 0 m²/s² 0 0 2.36 3
01:00 0 J/kg -0.8 K 0 % 0 % 0 % 0 m²/s² 0 0 -0.59 3
02:00 0 J/kg 0.7 K 0 % 0 % 0 % 0 m²/s² 0 0 1.81 3
03:00 0 J/kg -0.6 K 0 % 0 % 0 % 0 m²/s² 0 0 -0.12 3
04:00 0 J/kg -0.8 K 0 % 0 % 0 % 0 m²/s² 0 0 1.15 3
05:00 0 J/kg -2.1 K 0 % 0 % 0 % 0 m²/s² 0 0 1.05 3
06:00 0 J/kg -3.5 K 0 % 0 % 0 % 0 m²/s² 0 0 -0.59 3
07:00 0 J/kg -3.6 K 0 % 0 % 0 % 0 m²/s² 0 0 -2.25 3
08:00 0 J/kg -2.3 K 0 % 0 % 0 % 0 m²/s² 0 0 -2.18 3
09:00 36 J/kg 0.2 K 0 % 0 % 0 % 0 m²/s² 0 0 0.59 80
10:00 7 J/kg 0.3 K 0 % 0 % 0 % 0 m²/s² 0 0 0.69 80
11:00 52 J/kg -1.1 K 0 % 0 % 0 % 0 m²/s² 0 0 -0.89 95
12:00 250 J/kg -2.2 K 0 % 0 % 0 % 0 m²/s² 0 0 -1.45 95
13:00 400 J/kg -2.3 K 0 % 0 % 0 % 0 m²/s² 0 0 -1.79 95
14:00 933 J/kg -3.7 K 0 % 0 % 0 % 0 m²/s² 0 0 -1.75 95
Temp Baro Wind Neerslag
  EWN Forecast EWN WRFDA DWD ICON FMI HIRLAM MET Norway GFS
 05:52     21:27    Daglengte: 15:35 Vandaag
17:00 26.1° 1018.3 hPa 3.4 m/s 0.0 mm 25.8° 1017.9 hPa 3.8 m/s 2.4 mm 26.0° 1018.5 hPa 3.1 m/s -2.0 mm 26.4° 1018.1 hPa 3.7 m/s 0.0 mm 25.2° 1017.9 hPa 4.1 m/s
20:00 24.7° 1017.8 hPa 1.6 m/s 0.0 mm 25.3° 1017.3 hPa 1.1 m/s 3.6 mm 24.4° 1017.8 hPa 0.9 m/s 0.0 mm 25.4° 1017.7 hPa 1.8 m/s 0.0 mm 22.9° 1017.4 hPa 1.3 m/s
23:00 19.8° 1018.4 hPa 2.0 m/s 0.0 mm 19.5° 1018.1 hPa 3.1 m/s 3.6 mm 18.8° 1018.5 hPa 1.1 m/s 0.0 mm 20.7° 1017.9 hPa 2.9 m/s 0.0 mm 18.0° 1018.6 hPa 2.9 m/s
 05:50     21:29    Daglengte: 15:39 Morgen
02:00 18.6° 1018.3 hPa 3.1 m/s 0.0 mm 18.6° 1018.2 hPa 3.6 m/s 3.6 mm 16.9° 1018.4 hPa 1.6 m/s 0.0 mm 19.4° 1017.1 hPa 4.9 m/s 0.0 mm 16.8° 1018.8 hPa 3.3 m/s
05:00 17.7° 1018.5 hPa 3.0 m/s 0.0 mm 17.1° 1019.0 hPa 2.5 m/s 3.6 mm 17.5° 1018.2 hPa 1.9 m/s 0.0 mm 17.7° 1018.4 hPa 3.6 m/s 0.0 mm 15.4° 1019.6 hPa 2.8 m/s
08:00 18.5° 1020.8 hPa 2.7 m/s 0.0 mm 18.2° 1020.5 hPa 3.5 m/s 3.6 mm 18.2° 1020.7 hPa 2.4 m/s 0.0 mm 18.6° 1020.6 hPa 3.9 m/s 0.0 mm 17.2° 1021.5 hPa 2.6 m/s
11:00 19.9° 1022.2 hPa 2.1 m/s 0.0 mm 20.2° 1021.5 hPa 3.0 m/s 3.8 mm 19.9° 1021.3 hPa 1.8 m/s 0.1 mm 19.8° 1022.4 hPa 4.2 m/s 0.0 mm 18.6° 1022.5 hPa 2.9 m/s
14:00 23.2° 1021.5 hPa 1.3 m/s 0.0 mm 23.0° 1020.9 hPa 1.8 m/s 3.8 mm 22.9° 1021.0 hPa 1.2 m/s 0.0 mm 22.6° 1022.8 hPa 2.0 m/s 0.0 mm 20.7° 1022.2 hPa 1.3 m/s
17:00 25.1° 1020.0 hPa 1.9 m/s 0.0 mm 25.2° 1019.8 hPa 1.3 m/s 3.8 mm 24.9° 1019.8 hPa 2.1 m/s 0.0 mm 24.0° 1022.0 hPa 1.2 m/s 0.0 mm 23.7° 1020.9 hPa 1.0 m/s
20:00 24.1° 1019.2 hPa 2.7 m/s 0.0 mm 25.0° 1018.6 hPa 0.6 m/s 3.8 mm 23.8° 1019.1 hPa 3.1 m/s 0.0 mm 23.3° 1021.0 hPa 1.7 m/s 0.0 mm 21.6° 1019.8 hPa 2.1 m/s
23:00 20.4° 1018.8 hPa 2.6 m/s 0.0 mm 21.1° 1018.6 hPa 2.0 m/s 3.8 mm 20.1° 1018.5 hPa 2.4 m/s 0.0 mm 19.0° 1021.1 hPa 2.5 m/s 0.0 mm 17.5° 1019.3 hPa 2.9 m/s
 05:49     21:30    Daglengte: 15:41 Donderdag 19 Mei
02:00 19.0° 1017.5 hPa 2.5 m/s 0.0 mm 20.3° 1017.8 hPa 3.3 m/s 3.8 mm 19.0° 1017.1 hPa 1.8 m/s 0.0 mm 15.8° 1020.1 hPa 2.4 m/s 0.0 mm 16.6° 1017.8 hPa 3.3 m/s
05:00 18.8° 1016.4 hPa 3.1 m/s 0.0 mm 19.2° 1016.0 hPa 3.0 m/s 3.8 mm 19.1° 1016.2 hPa 2.8 m/s 0.1 mm 14.3° 1018.7 hPa 2.5 m/s 0.0 mm 16.7° 1016.7 hPa 3.3 m/s
08:00 19.3° 1017.2 hPa 2.7 m/s 0.0 mm 19.9° 1017.4 hPa 1.7 m/s 17.1 mm 19.2° 1017.8 hPa 1.8 m/s 0.3 mm 17.2° 1017.4 hPa 4.1 m/s 0.0 mm 17.0° 1017.7 hPa 2.4 m/s
11:00 21.7° 1018.2 hPa 2.8 m/s 5.5 mm 21.1° 1018.3 hPa 2.8 m/s 28.8 mm 21.1° 1018.9 hPa 1.5 m/s 0.6 mm 21.2° 1017.8 hPa 3.5 m/s
14:00 25.5° 1018.9 hPa 4.5 m/s 0.0 mm 24.1° 1019.1 hPa 7.9 m/s 38.2 mm 25.5° 1018.9 hPa 3.5 m/s 0.0 mm 25.0° 1017.9 hPa 4.0 m/s
17:00 23.6° 1019.4 hPa 4.3 m/s 13.9 mm 23.3° 1020.1 hPa 6.2 m/s 38.8 mm 22.5° 1019.4 hPa 4.1 m/s 1.5 mm 22.5° 1018.5 hPa 5.6 m/s
20:00 21.6° 1020.4 hPa 3.0 m/s 14.0 mm 21.8° 1020.4 hPa 3.4 m/s 38.8 mm 19.9° 1020.5 hPa 0.9 m/s 5.1 mm 20.0° 1019.1 hPa 4.1 m/s
23:00 17.7° 1020.9 hPa 2.3 m/s 4.4 mm 17.4° 1021.3 hPa 2.1 m/s 38.8 mm 17.3° 1020.9 hPa 2.0 m/s 0.0 mm 14.3° 1021.3 hPa 2.2 m/s
 05:48     21:31    Daglengte: 15:43 Vrijdag 20 Mei
02:00 16.3° 1020.6 hPa 1.7 m/s 6.2 mm 15.1° 1020.9 hPa 1.6 m/s 45.2 mm 16.0° 1020.7 hPa 0.9 m/s -0.0 mm 12.6° 1021.2 hPa 0.6 m/s
05:00 15.5° 1019.0 hPa 2.3 m/s 7.0 mm 15.3° 1019.1 hPa 2.0 m/s 56.4 mm 15.3° 1019.4 hPa 1.0 m/s 0.0 mm 12.4° 1020.3 hPa 1.3 m/s
08:00 16.6° 1018.7 hPa 1.9 m/s 0.0 mm 15.9° 1019.4 hPa 4.2 m/s 61.4 mm 16.8° 1018.5 hPa 1.4 m/s 0.0 mm 15.4° 1019.3 hPa 1.8 m/s
11:00 19.4° 1018.0 hPa 2.1 m/s 31.4 mm 19.8° 1017.9 hPa 5.4 m/s 83.3 mm 19.3° 1018.0 hPa 1.2 m/s 5.5 mm 18.5° 1016.9 hPa 2.7 m/s
14:00 20.1° 1016.0 hPa 4.9 m/s 36.9 mm 21.1° 1017.0 hPa 3.7 m/s 89.3 mm 19.9° 1015.7 hPa 5.2 m/s 10.7 mm 13.3° 1017.9 hPa 3.3 m/s
17:00 14.0° 1019.1 hPa 2.0 m/s 18.4 mm 14.0° 1019.1 hPa 2.0 m/s 18.4 mm
20:00 15.3° 1019.5 hPa 2.9 m/s 18.5 mm 15.3° 1019.5 hPa 2.9 m/s 18.5 mm
23:00 11.8° 1021.3 hPa 3.8 m/s 18.7 mm 11.8° 1021.3 hPa 3.8 m/s 18.7 mm
 05:47     21:33    Daglengte: 15:46 Zaterdag 21 Mei
02:00 9.8° 1021.6 hPa 4.4 m/s 18.7 mm 9.8° 1021.6 hPa 4.4 m/s 18.7 mm
05:00 8.9° 1022.2 hPa 4.5 m/s 18.7 mm 8.9° 1022.2 hPa 4.5 m/s 18.7 mm
08:00 11.2° 1023.2 hPa 4.4 m/s 18.7 mm 11.2° 1023.2 hPa 4.4 m/s 18.7 mm
11:00 16.1° 1023.4 hPa 4.3 m/s 18.7 mm 16.1° 1023.4 hPa 4.3 m/s 18.7 mm
14:00 18.8° 1022.9 hPa 3.6 m/s 18.7 mm 18.8° 1022.9 hPa 3.6 m/s 18.7 mm
17:00 19.8° 1021.3 hPa 2.0 m/s 18.7 mm 19.8° 1021.3 hPa 2.0 m/s 18.7 mm
20:00 18.6° 1020.7 hPa 0.4 m/s 18.7 mm 18.6° 1020.7 hPa 0.4 m/s 18.7 mm
23:00 12.4° 1021.1 hPa 2.6 m/s 18.7 mm 12.4° 1021.1 hPa 2.6 m/s 18.7 mm
 05:45     21:34    Daglengte: 15:49 Zondag 22 Mei
02:00 10.8° 1019.4 hPa 3.3 m/s 18.7 mm 10.8° 1019.4 hPa 3.3 m/s 18.7 mm
05:00 9.9° 1016.9 hPa 3.1 m/s 18.7 mm 9.9° 1016.9 hPa 3.1 m/s 18.7 mm
08:00 13.3° 1015.5 hPa 2.9 m/s 18.7 mm 13.3° 1015.5 hPa 2.9 m/s 18.7 mm
11:00 15.1° 1012.7 hPa 4.5 m/s 18.7 mm 15.0° 1012.7 hPa 4.5 m/s 18.7 mm
14:00 19.5° 1010.6 hPa 2.5 m/s 18.8 mm 19.5° 1010.6 hPa 2.5 m/s 18.8 mm
17:00 18.5° 1009.6 hPa 2.9 m/s 19.4 mm 18.5° 1009.6 hPa 2.9 m/s 19.4 mm
20:00 12.6° 1010.7 hPa 6.3 m/s 20.6 mm 12.6° 1010.7 hPa 6.3 m/s 20.6 mm
23:00 12.8° 1013.1 hPa 4.3 m/s 21.7 mm 12.8° 1013.1 hPa 4.3 m/s 21.7 mm
 05:44     21:35    Daglengte: 15:51 Maandag 23 Mei
02:00 10.6° 1014.6 hPa 3.0 m/s 21.7 mm 10.6° 1014.6 hPa 3.0 m/s 21.7 mm
05:00 9.1° 1015.4 hPa 2.8 m/s 21.7 mm 9.1° 1015.4 hPa 2.8 m/s 21.7 mm
08:00 10.9° 1016.2 hPa 2.3 m/s 21.7 mm 10.9° 1016.2 hPa 2.3 m/s 21.7 mm
11:00 15.4° 1015.4 hPa 3.3 m/s 21.7 mm 15.4° 1015.4 hPa 3.3 m/s 21.7 mm
14:00 18.6° 1014.4 hPa 4.6 m/s 21.7 mm 18.6° 1014.4 hPa 4.6 m/s 21.7 mm
17:00 18.8° 1013.4 hPa 3.4 m/s 21.7 mm 18.8° 1013.4 hPa 3.4 m/s 21.7 mm
20:00 17.3° 1013.0 hPa 3.8 m/s 22.2 mm 17.3° 1013.0 hPa 3.8 m/s 22.2 mm
23:00 13.3° 1014.2 hPa 3.2 m/s 22.4 mm 13.3° 1014.2 hPa 3.2 m/s 22.4 mm
 05:43     21:37    Daglengte: 15:54 Dinsdag 24 Mei
02:00 10.6° 1014.8 hPa 3.0 m/s 22.4 mm 10.6° 1014.8 hPa 3.0 m/s 22.4 mm
05:00 9.3° 1014.5 hPa 2.5 m/s 22.4 mm 9.3° 1014.5 hPa 2.5 m/s 22.4 mm
08:00 11.8° 1015.0 hPa 2.1 m/s 22.4 mm 11.8° 1015.0 hPa 2.1 m/s 22.4 mm
11:00 15.2° 1015.4 hPa 2.0 m/s 22.4 mm 15.2° 1015.4 hPa 2.0 m/s 22.4 mm
14:00 19.1° 1014.7 hPa 1.5 m/s 22.4 mm 19.1° 1014.7 hPa 1.5 m/s 22.4 mm
20:00 20.1° 1013.5 hPa 1.0 m/s 22.4 mm 20.1° 1013.5 hPa 1.0 m/s 22.4 mm
 05:42     21:38    Daglengte: 15:56 Woensdag 25 Mei
02:00 13.5° 1013.5 hPa 3.1 m/s 22.4 mm 13.5° 1013.5 hPa 3.1 m/s 22.4 mm
08:00 16.7° 1012.3 hPa 2.6 m/s 22.4 mm 16.7° 1012.3 hPa 2.6 m/s 22.4 mm
14:00 26.9° 1009.4 hPa 4.4 m/s 22.4 mm 26.9° 1009.4 hPa 4.4 m/s 22.4 mm
20:00 25.1° 1006.2 hPa 3.7 m/s 22.4 mm 25.1° 1006.2 hPa 3.7 m/s 22.4 mm
 05:41     21:39    Daglengte: 15:58 Donderdag 26 Mei
02:00 18.5° 1007.2 hPa 5.9 m/s 24.5 mm 18.5° 1007.2 hPa 5.9 m/s 24.5 mm
08:00 13.5° 1011.8 hPa 4.8 m/s 26.4 mm 13.5° 1011.8 hPa 4.8 m/s 26.4 mm
14:00 16.2° 1017.0 hPa 7.5 m/s 29.0 mm 16.2° 1017.0 hPa 7.5 m/s 29.0 mm
20:00 16.1° 1020.8 hPa 4.8 m/s 29.3 mm 16.1° 1020.8 hPa 4.8 m/s 29.3 mm
 05:40     21:40    Daglengte: 16:00 Vrijdag 27 Mei
02:00 9.7° 1024.2 hPa 2.8 m/s 29.3 mm 9.7° 1024.2 hPa 2.8 m/s 29.3 mm
08:00 12.1° 1025.9 hPa 2.1 m/s 29.3 mm 12.1° 1025.9 hPa 2.1 m/s 29.3 mm
14:00 21.0° 1018.0 hPa 1.5 m/s 0.5 mm
20:00 19.5° 1017.6 hPa 1.0 m/s 0.6 mm
 05:39     21:41    Daglengte: 16:02 Zaterdag 28 Mei
02:00 13.9° 1018.4 hPa 0.7 m/s 0.1 mm
08:00 14.4° 1018.1 hPa 1.1 m/s 0.0 mm
14:00 21.8° 1017.2 hPa 1.0 m/s 0.4 mm
20:00 19.8° 1016.5 hPa 1.4 m/s 0.9 mm
 05:38     21:43    Daglengte: 16:05 Zondag 29 Mei
02:00 14.5° 1017.4 hPa 0.2 m/s 1.0 mm
08:00 14.0° 1017.9 hPa 0.6 m/s 1.2 mm
14:00 20.1° 1018.0 hPa 1.5 m/s 0.6 mm
20:00 18.2° 1018.2 hPa 2.4 m/s 1.4 mm
 05:38     21:44    Daglengte: 16:06 Maandag 30 Mei
02:00 12.5° 1019.5 hPa 1.2 m/s 0.6 mm
08:00 13.1° 1019.6 hPa 1.0 m/s 1.1 mm
14:00 20.3° 1018.8 hPa 1.7 m/s 0.8 mm
20:00 18.6° 1017.9 hPa 2.2 m/s 0.5 mm
 05:37     21:45    Daglengte: 16:08 Dinsdag 31 Mei
02:00 13.1° 1018.9 hPa 0.5 m/s 0.1 mm
08:00 13.6° 1018.6 hPa 0.2 m/s 0.3 mm
14:00 19.9° 1017.8 hPa 0.9 m/s 0.4 mm
20:00 18.7° 1017.0 hPa 1.6 m/s 0.5 mm
 05:36     21:46    Daglengte: 16:10 Woensdag 01 Jun
02:00 13.0° 1018.3 hPa 0.2 m/s 0.2 mm
08:00 13.3° 1018.4 hPa 0.5 m/s 0.1 mm
14:00 20.2° 1017.7 hPa 1.3 m/s 0.4 mm
FMI Hirlam - 7.5 km EWN WRFDA - 12 km DWD ICON - 7 km GFS - 25 km Basiskaart






























































Updatetijd (Europe/Brussels) Resolutie Lengte Stap
FMI Hirlam 14:00, 20:00, 02:00, 08:00 7.5 km 49h 1h
EWN WRFDA 16:15, 22:15, 04:15, 10:15 12 km 73h 1h
DWD ICON 11:45, 17:45, 23:45, 05:45 7 km 75h 1h
GFS 14:15, 20:15, 02:15, 08:15 25 km 237h 3h
30+ mm
25-30 mm
20-25 mm
15-20 mm
10-15 mm
6-10 mm
4-6 mm
2-4 mm
1-2 mm
0.5-1 mm
0.2-0.5 mm
0.1-0.2 mm
30+ mm
25-30 mm
20-25 mm
15-20 mm
10-15 mm
6-10 mm
4-6 mm
2-4 mm
1-2 mm
0.5-1 mm
0.2-0.5 mm
0.1-0.2 mm
Sneeuwval
Natte sneeuw
Hagel
Vorst
30+ mm
25-30 mm
20-25 mm
15-20 mm
10-15 mm
6-10 mm
4-6 mm
2-4 mm
1-2 mm
0.5-1 mm
0.2-0.5 mm
0.1-0.2 mm
Sneeuwval
Natte sneeuw
Hagel
Vorst
Onweer
50 mm
40 mm
30 mm
26 mm
22 mm
18 mm
14 mm
10 mm
9 mm
8 mm
7 mm
6 mm
5 mm
4.5 mm
4 mm
3.5 mm
3 mm
2.5 mm
2 mm
1.5 mm
1 mm
0.8 mm
0.6 mm
0.4 mm
0.2 mm
0.05 mm
35°
30°
25°
20°
15°
10°
-5°
-10°
-15°
-20°
-25°
-30°
-35°
33> m/s
29 m/s
25 m/s
21 m/s
17 m/s
14 m/s
11 m/s
8 m/s
5 m/s
3 m/s
0 m/s
2600 J/kg
2400 J/kg
2200 J/kg
2000 J/kg
1800 J/kg
1600 J/kg
1400 J/kg
1200 J/kg
1000 J/kg
800 J/kg
600 J/kg
400 J/kg
200 J/kg
70 dBZ
65 dBZ
60 dBZ
55 dBZ
50 dBZ
45 dBZ
40 dBZ
35 dBZ
30 dBZ
25 dBZ
20 dBZ
15 dBZ
10 dBZ
5 dBZ
-1 K
-2 K
-3 K
-4 K
-5 K
-6 K
-7 K
-8 K
-9 K
950 m²/s²
900 m²/s²
850 m²/s²
800 m²/s²
750 m²/s²
700 m²/s²
650 m²/s²
600 m²/s²
550 m²/s²
500 m²/s²
450 m²/s²
400 m²/s²
350 m²/s²
300 m²/s²
250 m²/s²
200 m²/s²
150 m²/s²
100 m²/s²
46 m/s
44 m/s
42 m/s
40 m/s
38 m/s
36 m/s
34 m/s
32 m/s
30 m/s
28 m/s
26 m/s
24 m/s
22 m/s
20 m/s
16 m/s
12 m/s
8 m/s
4 m/s
30 m/s
28 m/s
26 m/s
24 m/s
22 m/s
20 m/s
18 m/s
16 m/s
14 m/s
12 m/s
10 m/s
8 m/s
6 m/s
4 m/s
2 m/s
3.0
2.8
2.6
2.4
2.2
2.0
1.8
1.6
1.4
1.2
1.0
0.8
0.6
0.4
0.2
15
14
13
12
11
10
9
8
7
6
5
4
3
2
1
90%
80%
70%
60%
50%
40%
30%
20%
10%
42
40
38
36
34
32
30
28
26
24
22
20
18
16
14
12
90+ cm
80-90 cm
70-80 cm
60-70 cm
50-60 cm
40-50 cm
30-40 cm
20-30 cm
10-20 cm
1-10 cm
Sneeuwval
Natte sneeuw
Regen
>120 mm
115 mm
110 mm
105 mm
100 mm
95 mm
90 mm
85 mm
80 mm
75 mm
70 mm
65 mm
60 mm
55 mm
50 mm
45 mm
45 mm
40 mm
35 mm
30 mm
25 mm
20 mm
15 mm
10 mm
5 mm
0.1 mm
960 hPa
880 hPa
800 hPa
720 hPa
640 hPa
560 hPa
584 gpdm
568 gpdm
552 gpdm
536 gpdm
520 gpdm
504 gpdm
488 gpdm
Extreem zwaar Noodweer Kans op onweer
15% 15% 5% 50% 15%

Dag




Kaart






35°
30°
25°
20°
15°
10°
-5°
-10°
-15°
-20°
-25°
-30°
-35°
33> m/s
29 m/s
25 m/s
21 m/s
17 m/s
14 m/s